(503613) = 2011 CY85 = 2016 GH124

Discovered at Mount Lemmon on 2007-03-14 by Mt. Lemmon Survey.

Orbit

Orbit type: Main Belt

Note: WebGL enabled browser required.

epoch2024-03-31.0
epoch JD2460400.5
perihelion date2024-01-02.85566
perihelion JD2460312.35566
argument of perihelion (°)326.88930
ascending node (°)163.76298
inclination (°)12.95897
eccentricity0.1455704
perihelion distance (AU)2.2748673
Tisserand w.r.t. Jupiter3.3
ΔV w.r.t. Earth (km/sec)10.3
semimajor axis (AU)2.6624399
mean anomaly (°)19.99763
mean daily motion (°/day)0.22687370
aphelion distance (AU)3.050
period (years)4.34
P-vector [x]-0.65535688
P-vector [y]0.73254499
P-vector [z]0.18407933
Q-vector [x]-0.75271216
Q-vector [y]-0.65363455
Q-vector [z]-0.07865295
absolute magnitude16.96
phase slope0.15
uncertainty0
referenceMPEC 2024-E73
observations used239
oppositions11
arc length (days)7614
first opposition used2003
last opposition used2024
residual rms (arc-secs)0.69
perturbers coarse indicatorM-v
perturbers precise indicator003Ek
first observation date used2003-05-01.0
last observation date used2024-03-05.0
computer nameMPCLINUX
JD of orbit computation2458020.888709
perihelion JD uncertainty (days)7.3053E-05
argument of perihelion uncertainty (°)1.9881E-05
ascending node uncertainty (°)1.4870E-05
inclination uncertainty (°)3.2629E-06
eccentricity uncertainty 3.3826E-08
perihelion distance uncertainty (AU)9.3233E-08
Minimum Orbit Intersection Distances (in AU)
for orbit epoch: 2460400.5, reference: E2024-E73
Mercury1.94214
Venus1.57035
Earth1.29946
Mars0.64727
Jupiter2.00629
Saturn6.60559
Uranus16.0797
Neptune26.9849

Observations

246 total observations over interval: 2003 05 01.39445 – 2024 03 05.197848
These data are available for download (format description).

Date (UT) J2000 RA J2000 Dec Magn Location Ref
2003 05 01.39445 16 13 13.78 -02 09 06.1 22.2 V 691 – Steward Observatory, Kitt Peak-Spacewatch MPS 714051
2003 05 01.42287 16 13 12.58 -02 08 55.0 22.1 V 691 – Steward Observatory, Kitt Peak-Spacewatch MPS 714051
2003 05 01.45155 16 13 11.32 -02 08 43.4 21.9 V 691 – Steward Observatory, Kitt Peak-Spacewatch MPS 714051
2007 03 14.37101 13 41 28.42 -00 10 09.5 19.7 V G96 – Mt. Lemmon Survey MPS 714051
2007 03 14.37881 13 41 28.21 -00 10 04.7 20.5 V G96 – Mt. Lemmon Survey MPS 714051
2007 03 14.38653 13 41 28.03 -00 10 00.0 19.8 V G96 – Mt. Lemmon Survey MPS 714051
2007 03 14.39443 13 41 27.78 -00 09 55.3 20.4 V G96 – Mt. Lemmon Survey MPS 714051
2007 03 19.38393 13 39 11.41 +00 41 58.0 20.3 V G96 – Mt. Lemmon Survey MPS 714051
2007 03 19.38826 13 39 11.23 +00 42 00.5 20.6 V G96 – Mt. Lemmon Survey MPS 714051
2007 03 19.39260 13 39 11.08 +00 42 03.5 20.1 V G96 – Mt. Lemmon Survey MPS 714051
2007 03 19.39698 13 39 10.94 +00 42 06.1 20.5 V G96 – Mt. Lemmon Survey MPS 714051
2011 02 04.45268 10 06 31.168 +03 45 29.34 21.2 w F51 – Pan-STARRS 1, Haleakala MPS 384136
2011 02 04.46696 10 06 30.561 +03 45 38.22 20.2 w F51 – Pan-STARRS 1, Haleakala MPS 384136
2011 02 04.49583 10 06 29.339 +03 45 55.04 20.4 w F51 – Pan-STARRS 1, Haleakala MPS 384136
2011 02 05.44069 10 05 51.301 +03 55 08.55 20.2 w F51 – Pan-STARRS 1, Haleakala MPS 384136
2011 02 05.45496 10 05 50.682 +03 55 16.98 20.1 w F51 – Pan-STARRS 1, Haleakala MPS 384136
2011 02 05.46939 10 05 50.059 +03 55 25.55 20.1 w F51 – Pan-STARRS 1, Haleakala MPS 384136
2011 02 05.48379 10 05 49.431 +03 55 34.05 20.0 w F51 – Pan-STARRS 1, Haleakala MPS 384136
2011 02 12.35867 10 00 52.59 +05 07 35.7 19.8 V G96 – Mt. Lemmon Survey MPS 386308
2011 02 12.36443 10 00 52.30 +05 07 39.6 19.9 V G96 – Mt. Lemmon Survey MPS 386308
2011 02 12.37027 10 00 52.05 +05 07 43.3 19.7 V G96 – Mt. Lemmon Survey MPS 386308
2011 03 11.20728 09 42 34.66 +10 13 40.5 20.2 V 703 – Catalina Sky Survey MPS 714051
2011 03 11.21241 09 42 34.52 +10 13 43.4 20.2 V 703 – Catalina Sky Survey MPS 714051
2011 03 11.21751 09 42 34.45 +10 13 45.9 20.0 V 703 – Catalina Sky Survey MPS 714051
2011 03 11.22266 09 42 34.23 +10 13 49.9 19.7 V 703 – Catalina Sky Survey MPS 714051
2013 08 15.50003 23 19 21.756 -03 11 50.47 21.1 w F51 – Pan-STARRS 1, Haleakala MPS 714051
2013 08 15.51557 23 19 21.219 -03 11 57.01 21.1 w F51 – Pan-STARRS 1, Haleakala MPS 714051
2013 08 15.53116 23 19 20.676 -03 12 03.81 21.2 w F51 – Pan-STARRS 1, Haleakala MPS 714051
2013 08 15.54671 23 19 20.137 -03 12 10.48 21.4 w F51 – Pan-STARRS 1, Haleakala MPS 714051
2015 01 15.37990 05 59 59.142 +04 08 06.99 20.1 w F51 – Pan-STARRS 1, Haleakala MPS 714051
2015 01 15.39224 05 59 58.602 +04 08 12.01 20.2 w F51 – Pan-STARRS 1, Haleakala MPS 714051
2015 01 15.41704 05 59 57.507 +04 08 22.12 20.6 w F51 – Pan-STARRS 1, Haleakala MPS 714051
2015 02 13.23812 05 51 51.790 +08 08 07.27 20.7 w F51 – Pan-STARRS 1, Haleakala MPS 714051
2015 02 13.25199 05 51 51.897 +08 08 14.62 20.6 w F51 – Pan-STARRS 1, Haleakala MPS 714051
2015 02 13.26595 05 51 52.005 +08 08 22.44 20.6 w F51 – Pan-STARRS 1, Haleakala MPS 714051
2015 02 13.27992 05 51 52.125 +08 08 29.80 20.8 w F51 – Pan-STARRS 1, Haleakala MPS 714051
2016 03 17.61236 16 09 31.599 -06 37 48.28 21.5 w F51 – Pan-STARRS 1, Haleakala MPS 714051
2016 03 17.62092 16 09 31.752 -06 37 45.31 21.3 w F51 – Pan-STARRS 1, Haleakala MPS 714051
2016 03 17.62951 16 09 31.907 -06 37 41.78 21.4 w F51 – Pan-STARRS 1, Haleakala MPS 714051
2016 03 17.63801 16 09 32.071 -06 37 38.77 21.5 w F51 – Pan-STARRS 1, Haleakala MPS 714051
2016 04 01.61609 16 11 32.987 -04 56 06.61 21.1 r F51 – Pan-STARRS 1, Haleakala MPS 699160
2016 04 01.62646 16 11 32.927 -04 56 02.15 21.0 r F51 – Pan-STARRS 1, Haleakala MPS 699160
2016 04 01.63164 16 11 32.881 -04 55 59.88 21.2 r F51 – Pan-STARRS 1, Haleakala MPS 699160
2016 04 03.58254 16 11 21.927 -04 41 43.07 21.1 w F51 – Pan-STARRS 1, Haleakala MPS 699160
2016 04 03.59356 16 11 21.822 -04 41 38.09 21.1 w F51 – Pan-STARRS 1, Haleakala MPS 699160
2016 04 03.60460 16 11 21.731 -04 41 33.28 21.0 w F51 – Pan-STARRS 1, Haleakala MPS 699160
2016 04 29.35292 15 59 59.32 -01 33 16.5   691 – Steward Observatory, Kitt Peak-Spacewatch MPS 714051
2016 04 29.36687 15 59 58.67 -01 33 11.0   691 – Steward Observatory, Kitt Peak-Spacewatch MPS 714051
2016 04 29.38085 15 59 58.09 -01 33 05.7   691 – Steward Observatory, Kitt Peak-Spacewatch MPS 714051
2016 05 05.46600 15 55 21.279 -00 54 45.96 20.6 w F51 – Pan-STARRS 1, Haleakala MPS 714051
2016 05 05.47799 15 55 20.679 -00 54 41.72 20.7 w F51 – Pan-STARRS 1, Haleakala MPS 714051
2016 05 05.49001 15 55 20.084 -00 54 37.48 20.7 w F51 – Pan-STARRS 1, Haleakala MPS 714051
2016 05 05.50201 15 55 19.487 -00 54 33.30 20.7 w F51 – Pan-STARRS 1, Haleakala MPS 714051
2016 05 15.44935 15 47 01.460 -00 03 31.38 20.6 r F51 – Pan-STARRS 1, Haleakala MPS 714051
2016 05 15.46158 15 47 00.806 -00 03 27.98 20.8 r F51 – Pan-STARRS 1, Haleakala MPS 714051
2016 05 15.47382 15 47 00.160 -00 03 24.98 20.8 r F51 – Pan-STARRS 1, Haleakala MPS 714051
2016 06 02.22337 15 32 32.02 +00 41 17.4 21.2 V G96 – Mt. Lemmon Survey MPS 714051
2016 06 02.22730 15 32 31.85 +00 41 17.4 21.1 V G96 – Mt. Lemmon Survey MPS 714051
2016 06 02.23118 15 32 31.66 +00 41 17.1 21.4 V G96 – Mt. Lemmon Survey MPS 714051
2016 06 02.23511 15 32 31.47 +00 41 17.7 21.6 V G96 – Mt. Lemmon Survey MPS 714051
2016 06 04.41085 15 30 58.097 +00 42 19.33 20.9 w F51 – Pan-STARRS 1, Haleakala MPS 714051
2016 06 04.42412 15 30 57.519 +00 42 19.53 20.9 w F51 – Pan-STARRS 1, Haleakala MPS 714051
2016 06 04.43732 15 30 56.944 +00 42 19.73 21.0 w F51 – Pan-STARRS 1, Haleakala MPS 714051
2016 06 04.45054 15 30 56.367 +00 42 19.89 20.9 w F51 – Pan-STARRS 1, Haleakala MPS 714051
2016 06 11.33598 15 26 32.86 +00 39 08.5 20.1 V G96 – Mt. Lemmon Survey MPS 714051
2016 06 11.33980 15 26 32.76 +00 39 07.8 20.5 V G96 – Mt. Lemmon Survey MPS 714051
2016 06 11.34362 15 26 32.65 +00 39 06.0 20.4 V G96 – Mt. Lemmon Survey MPS 714051
2016 06 11.34744 15 26 32.51 +00 39 06.4 20.4 V G96 – Mt. Lemmon Survey MPS 714051
2016 06 11.39883 15 26 30.825 +00 39 02.90 21.0 r F51 – Pan-STARRS 1, Haleakala MPS 714051
2016 06 11.41023 15 26 30.417 +00 39 02.21 20.9 r F51 – Pan-STARRS 1, Haleakala MPS 714051
2016 06 11.42162 15 26 29.989 +00 39 01.17 21.1 r F51 – Pan-STARRS 1, Haleakala MPS 714051
2016 06 11.43309 15 26 29.592 +00 39 00.50 21.2 r F51 – Pan-STARRS 1, Haleakala MPS 714051
2017 07 27.45365 21 25 57.994 -05 40 04.21 21.3 w F51 – Pan-STARRS 1, Haleakala MPS 806681
2017 07 27.46600 21 25 57.438 -05 40 08.49 21.3 w F51 – Pan-STARRS 1, Haleakala MPS 806681
2017 07 27.47840 21 25 56.878 -05 40 12.69 21.4 w F51 – Pan-STARRS 1, Haleakala MPS 806681
2017 07 27.49075 21 25 56.302 -05 40 16.70 21.2 w F51 – Pan-STARRS 1, Haleakala MPS 806681
2017 08 26.29384 21 02 48.773 -09 04 51.18 21.7 w F51 – Pan-STARRS 1, Haleakala MPS 813439
2017 08 26.30788 21 02 48.169 -09 04 57.38 21.7 w F51 – Pan-STARRS 1, Haleakala MPS 813439
2017 08 26.32191 21 02 47.540 -09 05 03.63 21.6 w F51 – Pan-STARRS 1, Haleakala MPS 813439
2017 08 26.33598 21 02 46.925 -09 05 10.07 21.5 w F51 – Pan-STARRS 1, Haleakala MPS 813439
2017 09 14.31739 20 52 18.715 -11 16 17.58 21.7 w F51 – Pan-STARRS 1, Haleakala MPS 815722
2017 09 14.32995 20 52 18.406 -11 16 22.33 21.6 w F51 – Pan-STARRS 1, Haleakala MPS 815722
2017 09 14.34252 20 52 18.113 -11 16 26.86 21.6 w F51 – Pan-STARRS 1, Haleakala MPS 815722
2017 09 14.35508 20 52 17.827 -11 16 31.70 21.5 w F51 – Pan-STARRS 1, Haleakala MPS 815722
2017 09 24.23451 20 49 43.713 -12 13 12.65 22.0 w F51 – Pan-STARRS 1, Haleakala MPS 819259
2017 09 24.24424 20 49 43.589 -12 13 15.90 22.2 w F51 – Pan-STARRS 1, Haleakala MPS 819259
2017 09 24.25397 20 49 43.519 -12 13 18.67 21.9 w F51 – Pan-STARRS 1, Haleakala MPS 819259
2017 10 12.22565 20 50 46.761 -13 28 14.06 22.2 w F51 – Pan-STARRS 1, Haleakala MPS 826224
2017 10 12.23793 20 50 46.916 -13 28 16.52 21.8 w F51 – Pan-STARRS 1, Haleakala MPS 826224
2017 10 12.25019 20 50 47.084 -13 28 18.59 22.1 w F51 – Pan-STARRS 1, Haleakala MPS 826224
